Location: Melbourne
(37.8666°S, 145.1333°E)
Time: 15:34:10
(UTC+11:00)

Hubble Space Telescope - Visible Passes

Search period start: 25 February 2017 00:00
Search period end: 07 March 2017 00:00
Orbit: 538 x 542 km, 28.5° (Epoch: 24 February)

Date Brightness Start Highest point End Pass type
(mag) Time Alt. Az. Time Alt. Az. Time Alt. Az.
02 Mar 3.0 06:36:19 10° NNW 06:38:55 16° NNE 06:41:32 10° NE visible
03 Mar 2.8 06:25:58 10° NNW 06:28:50 18° NNE 06:31:43 10° NE visible
04 Mar 2.7 06:15:42 10° NW 06:18:45 20° N 06:21:49 10° NE visible
05 Mar 2.5 06:06:18 14° NW 06:08:41 21° N 06:11:52 10° NE visible
06 Mar 2.4 05:56:55 17° NNW 05:58:37 22° N 06:01:52 10° NE visible
